Temperature
17 17 17 17 17 17 16 16 16 16 16 16 16 16 16 16 15 15 15 15 15 15 15 15 15 15 15 14 14 14 14 14 14 13 13 13 13 13 13 13 13 13 13
17 17 17 17 17 17 17 16 16 16 16 16 16 16 16 16 16 15 15 15 15 15 15 15 15 14 14 14 14 14 14 14 14 13 13 13 13 13 13 13 13 13 13
18 17 17 17 17 17 17 16 16 16 16 16 16 16 16 16 16 15 15 15 15 15 15 15 15 14 14 14 14 14 14 14 13 13 13 13 13 13 13 13 13 12 12
18 17 17 17 17 17 17 16 16 16 16 16 16 16 16 16 16 15 15 15 15 15 15 15 15 14 14 14 14 14 14 13 13 13 13 13 13 12 12 12 12 12 12
18 17 17 17 17 17 17 16 16 16 16 16 16 16 16 16 16 15 15 15 15 15 15 14 14 14 14 14 14 13 13 13 13 13 13 13 13 12 12 12 12 12 12
18 18 17 17 17 17 17 16 16 16 16 16 16 16 16 16 15 15 15 15 15 14 14 14 14 14 14 14 13 13 13 13 13 13 13 12 12 12 12 12 12 12 12
18 18 17 17 17 17 17 16 16 16 16 16 16 16 16 15 15 15 15 15 15 14 14 14 14 14 14 13 13 13 13 13 13 12 12 12 12 12 12 11 11 11 11
18 18 17 17 17 17 17 16 16 16 16 16 16 16 15 15 15 15 15 15 14 14 14 14 14 14 13 13 13 13 13 13 12 12 12 12 12 11 11 11 11 11 11
18 18 18 17 17 17 17 16 16 16 16 16 16 15 15 15 15 15 15 14 14 14 14 14 14 14 13 13 13 13 13 12 12 12 12 12 11 11 11 11 11 10 10
18 18 18 17 17 17 17 16 16 16 16 16 15 15 15 15 15 14 14 14 14 14 14 14 13 13 13 13 13 12 12 12 12 12 12 11 11 11 11 10 10 10 10
18 18 17 17 17 17 16 16 16 16 15 15 15 15 15 14 14 14 14 14 14 14 14 13 13 13 13 12 12 12 12 12 11 11 11 11 11 11 10 10 10 9 9
18 17 17 17 17 16 16 16 16 15 15 15 15 15 14 14 14 14 14 14 13 13 13 13 13 12 12 12 12 12 11 11 11 11 11 11 11 11 10 10 9 9 9
17 17 17 17 16 16 16 16 15 15 15 15 14 14 14 14 14 14 13 13 13 13 13 12 12 12 12 12 12 11 11 11 11 10 10 10 10 10 10 9 9 9 9
17 17 17 16 16 16 16 15 15 15 14 14 14 14 14 13 13 13 13 13 12 12 12 12 12 12 12 11 11 11 11 10 10 10 10 10 10 9 9 9 9 9 8
17 17 16 16 16 15 15 15 15 14 14 14 14 13 13 13 13 13 12 12 12 12 12 12 11 11 11 11 11 10 10 10 10 9 9 9 9 9 9 8 8 8 8
16 16 16 16 15 15 15 14 14 14 13 13 13 13 13 12 12 12 12 12 12 11 11 11 11 11 11 10 10 10 10 9 9 9 9 9 8 8 8 8 8 7 7
16 16 16 15 15 15 14 14 14 13 13 13 12 12 12 12 12 11 11 11 11 11 11 11 10 10 10 10 9 9 9 9 9 8 8 8 8 7 7 7 7 7 7
15 15 15 15 14 14 14 13 13 13 13 12 12 12 12 11 11 11 11 11 10 10 10 10 10 9 9 9 9 8 8 8 8 8 7 7 7 7 7 6 6 6 6
15 15 14 14 14 13 13 13 13 12 12 12 12 11 11 11 11 10 10 10 10 10 9 9 9 9 8 8 8 8 7 7 7 7 7 7 6 6 6 6 6 5 5
14 14 14 13 13 13 12 12 12 12 11 11 11 11 10 10 10 10 10 9 9 9 9 8 8 8 8 8 7 7 7 7 6 6 6 6 6 5 5 5 5 5 5
14 13 13 13 12 12 12 12 11 11 11 11 10 10 10 9 9 9 9 9 8 8 8 8 7 7 7 7 6 6 6 6 6 5 5 5 5 5 4 4 4 4 4
13 13 12 12 12 11 11 11 11 10 10 10 10 9 9 9 9 8 8 8 7 7 7 7 6 6 6 6 5 5 5 5 5 5 5 4 4 4 4 3 3 3 3
12 12 12 11 11 11 11 10 10 10 9 9 9 9 8 8 8 7 7 7 7 6 6 6 6 5 5 5 5 4 4 4 4 4 4 4 3 3 3 3 3 3 3
12 11 11 11 10 10 10 10 9 9 9 8 8 8 7 7 7 7 6 6 6 5 5 5 5 5 4 4 4 4 4 3 3 3 3 3 3 3 2 2 2 2 2
11 10 10 10 10 9 9 9 8 8 8 7 7 7 7 6 6 6 5 5 5 5 4 4 4 4 4 3 3 3 3 3 2 2 2 2 2 2 2 2 1 1 1
10 10 9 9 9 8 8 8 7 7 7 6 6 6 6 5 5 5 5 4 4 4 4 3 3 3 3 3 2 2 2 2 2 2 1 1 1 1 1 1 1 1 1
Wind_Speed
7 6 6 6 6 6 5 5 5 4 4 4 4 4 4 3 3 4 3 4 5 4 4 4 4 3 3 3 3 3 3 3 3 1 1 1 2 2 3 4 4 4 4
8 7 7 6 6 6 6 5 5 5 4 5 4 5 4 3 3 4 3 4 4 4 3 4 3 3 4 3 3 3 2 2 4 2 1 1 1 1 1 2 4 3 3
8 8 7 7 7 7 6 6 5 5 4 4 5 5 4 3 4 3 3 3 3 3 3 3 3 4 3 2 3 3 2 2 2 3 1 1 1 1 2 2 3 3 4
8 8 8 8 8 7 7 6 6 6 5 4 4 4 4 4 4 3 3 3 3 2 2 3 3 4 3 3 3 2 2 3 2 2 1 0 1 1 1 1 2 3 3
9 8 8 8 7 7 7 6 5 5 6 5 4 3 3 4 4 4 4 4 4 3 2 2 2 3 4 4 3 3 3 3 2 2 1 1 1 1 1 1 1 2 3
10 9 8 7 7 7 7 6 6 5 5 5 5 4 4 3 5 7 6 5 4 4 3 1 1 2 3 4 4 5 5 4 3 2 1 1 2 2 1 1 0 1 3
9 8 8 8 8 7 8 7 6 6 5 5 5 5 4 4 6 8 8 6 5 4 4 2 1 1 2 2 2 2 1 3 5 4 3 3 3 3 2 1 1 2 3
9 8 8 8 8 7 7 7 6 5 5 5 5 5 4 4 6 8 9 5 4 3 4 4 3 3 2 3 3 1 1 2 2 2 4 4 4 4 4 3 3 1 2
9 9 9 9 9 8 8 7 6 5 5 5 4 5 5 4 5 7 7 4 2 2 2 2 3 4 4 5 4 2 2 3 3 4 5 5 5 4 4 3 1 1 2
10 9 8 9 9 9 9 7 5 5 5 5 4 4 5 4 4 6 6 3 2 2 2 2 4 4 5 5 5 4 4 4 2 1 2 3 3 4 4 4 4 2 2
7 7 7 8 9 8 7 5 5 5 5 4 4 3 3 3 3 5 6 4 4 3 2 2 3 4 5 5 5 5 5 4 2 2 2 2 2 2 3 5 5 4 4
6 7 7 7 7 7 7 5 5 6 5 4 3 2 1 2 2 4 6 6 5 4 3 3 3 4 4 4 4 4 5 2 1 1 2 3 3 4 4 5 8 9 8
7 6 6 6 5 6 7 6 5 5 4 4 3 3 2 1 2 3 4 5 6 4 3 4 3 3 3 3 4 4 3 2 2 2 4 5 4 4 3 3 4 6 7
7 6 5 6 5 5 5 5 5 5 5 4 4 3 2 1 1 2 2 2 3 2 2 1 1 1 1 2 2 2 2 3 3 4 4 4 3 3 3 3 3 3 3
6 5 5 4 5 4 4 3 4 4 6 6 5 4 4 3 4 4 3 3 3 3 2 1 1 1 1 2 2 3 2 2 3 4 4 4 4 4 4 3 3 3 4
6 5 4 4 4 4 4 3 3 3 4 5 5 5 3 3 2 2 2 3 3 4 3 1 1 2 3 3 3 3 3 4 4 5 5 5 5 5 5 4 3 4 6
7 6 4 4 4 4 4 4 3 3 4 3 3 3 2 1 1 2 3 3 3 5 2 1 2 3 3 3 3 3 4 4 4 4 5 5 5 5 5 5 5 5 6
6 6 5 4 4 4 4 4 3 3 2 1 1 0 1 1 2 2 3 4 2 1 1 2 2 3 3 3 3 3 4 4 3 4 4 5 5 5 5 6 6 6 7
5 4 4 4 4 4 4 3 3 3 2 1 1 2 1 2 3 3 4 2 1 1 1 2 2 2 3 3 3 3 4 4 4 4 4 5 5 5 6 6 7 9 8
4 6 6 5 4 4 3 3 3 2 2 1 1 0 1 2 2 1 1 0 0 1 1 2 2 3 3 3 3 3 4 4 4 4 5 5 5 5 6 7 7 7 7
4 5 6 5 4 4 3 3 3 3 2 1 0 0 3 2 1 0 0 0 1 1 2 2 2 2 3 3 3 3 4 4 4 4 5 5 5 6 6 6 7 7 8
5 4 4 4 4 4 3 3 3 2 2 1 1 1 2 2 1 1 0 1 1 1 1 1 2 2 3 3 3 3 4 4 5 5 5 6 6 6 6 6 7 7 8
5 5 4 4 4 4 4 3 3 2 2 1 1 2 2 1 1 1 1 1 1 1 2 2 2 3 4 5 4 3 4 4 5 6 6 6 6 7 7 7 8 9 9
5 5 5 4 4 4 3 2 2 2 2 2 2 2 1 1 1 1 1 1 1 2 3 3 3 3 5 6 6 7 7 8 9 8 7 7 7 7 7 8 8 9 9
4 4 4 4 4 3 3 3 3 3 2 2 2 2 2 1 1 2 1 1 2 2 4 4 5 5 6 7 8 9 11 13 13 11 9 7 8 8 8 9 9 9 9
5 4 4 4 4 3 3 3 3 2 2 2 2 2 1 1 1 1 1 1 2 2 4 5 6 7 8 8 10 12 13 14 15 15 12 8 7 8 8 8 10 10 10
Wind_Direction
171 169 162 166 164 157 155 164 163 156 151 150 147 133 121 107 101 100 96 96 95 86 83 94 90 89 83 72 82 90 94 112 124 292 321 337 18 14 18 22 18 22 19
175 168 169 167 161 159 166 171 163 157 152 149 145 138 134 126 117 117 118 110 113 113 110 101 94 97 84 75 84 88 97 113 132 150 297 344 337 318 353 360 8 6 5
172 167 167 169 170 173 175 172 163 156 147 140 142 146 150 146 137 130 129 128 133 140 140 130 123 112 100 90 93 95 94 93 102 134 187 295 315 347 14 356 358 355 346
171 171 175 180 178 178 172 166 163 157 152 154 157 155 155 149 144 139 133 129 128 129 136 143 144 144 150 138 114 117 111 97 91 98 103 327 310 339 39 355 339 333 325
172 178 185 182 174 167 162 165 161 157 160 158 150 148 146 146 155 150 145 137 130 121 114 137 152 151 151 150 143 150 132 114 103 92 86 38 354 346 280 270 292 313 306
176 184 181 175 169 167 167 165 159 160 159 152 159 158 155 163 159 157 150 145 145 147 149 147 139 130 154 159 153 152 149 145 152 146 163 193 245 227 215 197 201 2 309
180 180 176 176 174 173 168 161 166 170 162 160 168 163 169 181 162 156 151 146 153 165 172 178 172 150 139 136 135 126 161 175 166 161 173 208 215 215 173 163 194 206 243
179 179 177 174 174 171 166 171 175 168 165 170 174 174 177 195 176 164 156 144 154 176 187 190 191 205 191 165 156 150 280 272 231 186 194 211 212 199 182 188 200 225 290
181 185 182 175 173 172 176 181 178 168 171 175 174 174 180 208 193 177 159 146 158 199 209 202 200 213 220 179 162 186 262 292 291 248 240 241 242 224 177 114 92 49 313
189 187 180 176 175 180 186 184 174 171 178 171 174 182 184 202 198 183 167 159 179 222 249 252 235 220 209 185 180 187 223 254 262 324 301 289 274 252 220 190 184 190 244
179 169 170 175 179 182 180 173 163 165 163 166 175 189 200 209 207 190 175 172 191 208 231 254 254 227 216 207 193 199 223 221 216 226 259 286 306 295 272 239 213 195 211
155 160 169 172 174 170 162 163 162 160 162 169 171 197 245 248 225 211 196 193 187 195 226 238 239 227 223 222 213 225 228 212 189 223 260 274 274 274 270 260 246 235 234
147 159 165 164 164 158 160 161 157 159 167 176 176 201 237 250 258 233 213 210 206 208 225 222 227 236 242 250 248 239 223 201 198 233 252 259 254 260 276 288 284 267 264
146 155 156 153 152 149 152 158 163 172 174 179 185 201 220 239 253 250 235 234 232 227 239 256 300 303 283 284 291 279 245 217 217 237 254 262 265 269 266 255 265 273 280
136 136 135 139 145 144 140 151 166 180 179 179 190 189 187 222 241 219 197 210 209 208 157 82 17 335 305 298 295 285 270 262 256 256 258 269 272 271 271 260 251 252 257
132 131 134 136 135 135 131 97 63 106 139 154 162 165 193 213 221 200 193 192 187 155 130 168 241 250 256 263 268 274 267 261 258 256 257 258 262 265 274 272 255 252 262
135 139 136 136 137 138 137 138 120 52 63 93 129 147 152 136 121 126 129 121 116 130 136 218 245 255 261 264 266 267 272 273 267 265 266 268 268 270 272 274 270 267 268
130 136 136 138 142 143 145 149 147 145 131 19 346 248 153 96 91 107 113 98 67 86 213 245 258 265 269 273 275 277 282 289 281 274 273 275 275 276 278 275 272 269 272
124 128 131 131 131 131 135 135 135 139 142 141 56 19 32 63 62 72 103 109 162 240 257 270 275 279 279 278 280 283 283 284 285 283 280 279 278 276 277 277 277 278 273
118 123 125 123 119 116 118 120 122 126 128 127 132 129 77 76 65 50 68 99 225 273 279 280 286 289 287 286 287 293 297 295 294 290 288 288 284 280 279 281 282 283 278
109 112 111 111 116 120 117 118 119 120 124 126 163 137 128 124 149 153 114 289 265 272 279 283 288 296 298 298 296 299 299 298 296 295 296 294 292 289 286 284 284 283 283
110 109 111 117 117 114 116 119 121 123 128 125 78 55 104 91 82 76 35 313 290 270 269 271 295 300 301 299 303 304 306 306 305 303 302 300 297 293 290 288 288 287 287
107 108 105 105 108 108 105 106 113 116 111 102 90 73 75 75 65 54 351 325 320 337 353 357 335 333 343 340 334 319 307 305 305 304 302 300 298 296 293 289 287 289 288
106 110 111 109 106 108 111 104 100 102 102 97 88 86 83 72 49 24 6 1 7 1 6 1 357 346 347 345 339 332 325 320 318 314 305 300 298 296 293 289 287 285 284
102 105 107 109 108 108 105 98 94 91 87 85 83 78 70 63 46 26 13 12 7 356 352 350 345 341 337 332 329 327 325 325 323 317 311 303 299 298 296 292 291 291 288
104 106 105 105 106 106 105 102 97 92 88 82 78 78 71 56 32 10 4 5 348 338 339 341 339 336 333 332 329 328 327 326 325 320 315 306 298 296 299 296 293 291 289
Height
1560 1562 1563 1565 1566 1567 1568 1569 1570 1570 1571 1571 1572 1572 1572 1572 1572 1572 1572 1572 1572 1572 1572 1572 1571 1571 1571 1571 1571 1571 1570 1570 1569 1569 1569 1568 1567 1566 1566 1565 1564 1563 1562
1559 1561 1562 1564 1565 1567 1568 1569 1570 1570 1571 1571 1572 1572 1572 1572 1572 1572 1572 1572 1572 1572 1572 1572 1572 1571 1571 1571 1571 1571 1570 1570 1569 1568 1568 1568 1567 1566 1565 1565 1564 1563 1562
1557 1559 1561 1562 1564 1565 1567 1568 1569 1570 1571 1571 1571 1572 1572 1572 1572 1572 1572 1572 1572 1572 1572 1572 1572 1571 1571 1571 1571 1570 1570 1569 1569 1567 1567 1566 1566 1565 1565 1564 1564 1563 1562
1555 1557 1559 1561 1563 1564 1566 1567 1568 1569 1570 1571 1571 1571 1572 1572 1572 1572 1572 1572 1572 1572 1572 1572 1572 1571 1571 1571 1570 1570 1570 1569 1568 1567 1566 1565 1564 1564 1564 1563 1562 1562 1560
1553 1554 1556 1559 1561 1563 1564 1566 1567 1568 1569 1570 1570 1571 1571 1571 1572 1572 1572 1572 1572 1572 1572 1572 1571 1571 1571 1570 1570 1569 1569 1568 1567 1566 1565 1564 1563 1562 1562 1562 1561 1560 1559
1550 1552 1554 1557 1559 1561 1563 1564 1566 1567 1568 1569 1569 1570 1570 1571 1571 1571 1571 1571 1571 1571 1571 1571 1571 1571 1570 1570 1569 1569 1568 1567 1566 1565 1564 1563 1563 1562 1561 1560 1559 1558 1557
1547 1549 1552 1554 1556 1558 1560 1562 1564 1565 1566 1567 1568 1569 1569 1570 1570 1570 1570 1571 1571 1571 1571 1570 1570 1570 1569 1569 1568 1568 1567 1566 1566 1565 1563 1563 1562 1561 1560 1559 1558 1557 1555
1545 1547 1549 1552 1554 1556 1558 1560 1561 1563 1564 1565 1566 1567 1568 1568 1569 1569 1569 1569 1569 1569 1569 1569 1569 1568 1568 1567 1567 1566 1566 1565 1564 1563 1562 1561 1561 1560 1558 1557 1556 1554 1553
1542 1544 1546 1549 1551 1553 1555 1557 1559 1560 1561 1563 1564 1565 1566 1566 1567 1568 1568 1568 1568 1568 1568 1568 1567 1567 1566 1566 1565 1564 1564 1563 1563 1562 1561 1560 1559 1557 1556 1555 1553 1551 1549
1539 1542 1544 1546 1548 1550 1552 1554 1556 1558 1559 1560 1561 1562 1563 1564 1565 1565 1565 1565 1565 1566 1566 1566 1565 1565 1565 1564 1563 1562 1561 1561 1560 1559 1558 1557 1556 1555 1553 1552 1551 1549 1547
1537 1540 1542 1544 1546 1548 1550 1552 1553 1555 1556 1558 1559 1560 1561 1561 1562 1563 1563 1563 1563 1563 1562 1563 1563 1562 1562 1561 1560 1560 1559 1558 1557 1556 1554 1553 1552 1551 1550 1549 1547 1546 1544
1535 1537 1539 1541 1544 1546 1548 1549 1551 1552 1553 1555 1556 1557 1557 1558 1559 1559 1560 1560 1560 1559 1559 1559 1559 1559 1559 1558 1557 1556 1556 1554 1553 1552 1550 1549 1548 1547 1546 1545 1543 1542 1540
1533 1535 1537 1539 1541 1543 1545 1546 1548 1549 1550 1551 1552 1553 1554 1555 1556 1556 1556 1556 1556 1556 1556 1556 1556 1555 1555 1554 1553 1552 1551 1550 1549 1547 1546 1545 1544 1543 1542 1540 1538 1537 1535
1530 1533 1534 1536 1538 1540 1542 1543 1545 1546 1547 1548 1549 1550 1551 1552 1552 1552 1552 1553 1553 1553 1552 1552 1552 1551 1550 1550 1549 1548 1547 1546 1545 1543 1542 1540 1539 1538 1536 1535 1533 1531 1528
1529 1530 1532 1534 1536 1537 1539 1541 1542 1543 1544 1546 1546 1547 1548 1548 1549 1549 1549 1549 1549 1549 1549 1548 1547 1547 1546 1545 1544 1544 1543 1541 1540 1538 1537 1535 1534 1532 1530 1529 1527 1525 1522
1527 1528 1530 1532 1534 1535 1537 1538 1540 1541 1542 1543 1544 1545 1545 1545 1546 1546 1546 1546 1546 1545 1545 1544 1543 1542 1542 1541 1540 1539 1538 1536 1535 1533 1532 1530 1528 1526 1524 1523 1521 1519 1516
1525 1527 1528 1530 1531 1533 1534 1536 1537 1539 1540 1540 1541 1541 1542 1542 1542 1542 1542 1542 1542 1542 1541 1540 1539 1539 1538 1537 1535 1534 1532 1531 1530 1528 1526 1524 1523 1521 1519 1517 1515 1513 1510
1524 1525 1526 1528 1529 1531 1532 1534 1535 1536 1537 1537 1538 1539 1539 1539 1539 1539 1539 1539 1538 1537 1536 1536 1535 1535 1534 1532 1531 1529 1528 1526 1525 1523 1521 1519 1517 1515 1513 1511 1508 1506 1504
1523 1524 1525 1526 1528 1529 1530 1532 1533 1534 1534 1535 1536 1536 1536 1536 1536 1536 1536 1535 1534 1534 1533 1532 1532 1531 1529 1528 1526 1525 1523 1521 1519 1517 1515 1514 1512 1509 1507 1505 1502 1500 1498
1521 1522 1523 1524 1526 1527 1529 1530 1531 1532 1532 1533 1533 1534 1534 1534 1533 1533 1532 1532 1531 1530 1530 1529 1528 1526 1525 1523 1522 1520 1518 1516 1514 1512 1510 1508 1506 1503 1501 1498 1496 1494 1491
1520 1521 1522 1523 1525 1526 1527 1528 1529 1530 1531 1531 1531 1531 1531 1531 1530 1529 1529 1528 1528 1527 1526 1525 1523 1522 1521 1519 1517 1515 1513 1511 1509 1506 1504 1502 1499 1497 1495 1492 1490 1487 1485
1519 1520 1521 1522 1524 1525 1526 1527 1528 1528 1529 1529 1529 1529 1529 1528 1527 1527 1526 1525 1524 1523 1522 1521 1519 1518 1516 1514 1512 1510 1508 1505 1503 1501 1498 1496 1493 1491 1488 1486 1483 1481 1478
1518 1519 1520 1521 1522 1523 1524 1525 1526 1526 1526 1526 1526 1526 1525 1525 1524 1523 1522 1521 1520 1519 1518 1516 1515 1513 1511 1510 1508 1505 1503 1500 1498 1495 1492 1489 1487 1484 1482 1479 1476 1473 1470
1517 1518 1519 1519 1520 1521 1522 1523 1523 1523 1523 1523 1523 1523 1522 1521 1521 1520 1519 1518 1516 1515 1514 1512 1510 1508 1506 1504 1502 1500 1497 1495 1492 1489 1486 1483 1480 1478 1475 1472 1469 1466 1463
1515 1516 1517 1518 1519 1519 1520 1520 1521 1521 1521 1521 1520 1520 1519 1518 1517 1516 1515 1514 1512 1511 1509 1507 1505 1503 1501 1499 1497 1494 1492 1489 1486 1483 1480 1477 1474 1471 1468 1464 1461 1458 1456
1513 1514 1515 1516 1517 1517 1518 1518 1518 1518 1518 1518 1517 1516 1516 1515 1514 1512 1511 1510 1508 1506 1505 1503 1500 1498 1496 1493 1491 1488 1485 1482 1479 1477 1474 1470 1467 1464 1460 1457 1454 1451 1448